• In Uzbekistan
  • List of Countries
  • For 7 days
  • Water Temperature
  • Satellite Maps
  • Weather Map
  • Weather Widgets
  • user-avatar
    Login

    Hourly Weather Al-Chums

    Today, 20 September, Thursday

    Time Temperature Precipitation Wind Pressure Humidity
    00:00 +26°C° 0 mm 2 mps 716 mmHg 67%
    01:00 +26°C° 0 mm 2 mps 716 mmHg 68%
    02:00 +25°C° 0 mm 2 mps 716 mmHg 72%
    03:00 +25°C° 0 mm 2 mps 716 mmHg 73%
    04:00 +25°C° 0 mm 2 mps 716 mmHg 74%
    05:00 +24°C° 0 mm 2 mps 716 mmHg 74%
    06:00 +26°C° 0 mm 2 mps 716 mmHg 67%
    07:00 +27°C° 0 mm 2 mps 717 mmHg 59%
    08:00 +28°C° 0 mm 2 mps 717 mmHg 51%
    09:00 +30°C° 0 mm 3 mps 717 mmHg 46%
    10:00 +31°C° 0 mm 3 mps 717 mmHg 40%
    11:00 +34°C° 0 mm 3 mps 717 mmHg 34%
    12:00 +34°C° 0 mm 3 mps 717 mmHg 33%
    13:00 +35°C° 0 mm 3 mps 717 mmHg 32%
    14:00 +35°C° 0 mm 3 mps 716 mmHg 31%
    15:00 +34°C° 0 mm 3 mps 716 mmHg 35%
    16:00 +33°C° 0 mm 4 mps 716 mmHg 39%
    17:00 +33°C° 0 mm 5 mps 716 mmHg 43%
    18:00 +30°C° 0 mm 4 mps 716 mmHg 50%
    19:00 +29°C° 0 mm 4 mps 716 mmHg 57%
    20:00 +28°C° 0 mm 3 mps 716 mmHg 64%
    21:00 +27°C° 0 mm 3 mps 716 mmHg 65%
    22:00 +27°C° 0 mm 3 mps 716 mmHg 67%
    23:00 +26°C° 0 mm 3 mps 716 mmHg 69%

    Tomorrow, 21 September, Friday

    Time Temperature Precipitation Wind Pressure Humidity
    00:00 +26°C° 0 mm 2 mps 716 mmHg 71%
    01:00 +25°C° 0 mm 2 mps 716 mmHg 74%
    02:00 +25°C° 0 mm 2 mps 716 mmHg 76%
    03:00 +25°C° 0 mm 2 mps 716 mmHg 78%
    04:00 +24°C° 0 mm 2 mps 716 mmHg 80%
    05:00 +24°C° 0 mm 2 mps 716 mmHg 82%
    06:00 +25°C° 0 mm 2 mps 716 mmHg 75%
    07:00 +26°C° 0 mm 2 mps 717 mmHg 68%
    08:00 +27°C° 0 mm 3 mps 717 mmHg 61%
    09:00 +29°C° 0 mm 3 mps 717 mmHg 54%
    10:00 +30°C° 0 mm 3 mps 717 mmHg 46%
    11:00 +31°C° 0 mm 3 mps 717 mmHg 39%
    12:00 +33°C° 0 mm 3 mps 717 mmHg 38%
    13:00 +33°C° 0 mm 4 mps 717 mmHg 37%
    14:00 +34°C° 0 mm 4 mps 716 mmHg 36%
    15:00 +33°C° 0 mm 4 mps 716 mmHg 40%
    16:00 +32°C° 0 mm 5 mps 716 mmHg 45%
    17:00 +30°C° 0 mm 5 mps 716 mmHg 49%
    18:00 +29°C° 0 mm 4 mps 716 mmHg 54%
    19:00 +28°C° 0 mm 4 mps 716 mmHg 60%
    20:00 +27°C° 0 mm 3 mps 717 mmHg 65%
    21:00 +26°C° 0 mm 3 mps 717 mmHg 66%
    22:00 +26°C° 0 mm 2 mps 717 mmHg 68%
    23:00 +25°C° 0 mm 2 mps 717 mmHg 69%

    Day after tomorrow, 22 September, Saturday

    Time Temperature Precipitation Wind Pressure Humidity
    00:00 +25°C° 0 mm 2 mps 717 mmHg 70%
    01:00 +24°C° 0 mm 2 mps 717 mmHg 72%
    02:00 +24°C° 0 mm 2 mps 716 mmHg 73%
    03:00 +23°C° 0 mm 2 mps 716 mmHg 74%
    04:00 +23°C° 0 mm 1 mps 716 mmHg 75%
    05:00 +23°C° 0 mm 1 mps 716 mmHg 77%
    06:00 +24°C° 0 mm 2 mps 717 mmHg 68%
    07:00 +26°C° 0 mm 2 mps 717 mmHg 59%
    08:00 +27°C° 0 mm 2 mps 718 mmHg 50%
    09:00 +29°C° 0 mm 2 mps 718 mmHg 43%
    10:00 +30°C° 0 mm 3 mps 718 mmHg 36%
    11:00 +33°C° 0 mm 3 mps 718 mmHg 29%
    12:00 +33°C° 0 mm 3 mps 718 mmHg 28%
    13:00 +34°C° 0 mm 4 mps 717 mmHg 28%
    14:00 +34°C° 0 mm 4 mps 717 mmHg 28%
    15:00 +33°C° 0 mm 4 mps 717 mmHg 31%
    16:00 +32°C° 0 mm 4 mps 717 mmHg 35%
    17:00 +30°C° 0 mm 4 mps 716 mmHg 39%
    18:00 +29°C° 0 mm 4 mps 717 mmHg 44%
    19:00 +28°C° 0 mm 3 mps 717 mmHg 50%
    20:00 +27°C° 0 mm 2 mps 717 mmHg 55%
    21:00 +26°C° 0 mm 2 mps 717 mmHg 56%
    22:00 +26°C° 0 mm 2 mps 717 mmHg 57%
    23:00 +25°C° 0 mm 2 mps 717 mmHg 58%

    23 September, Sunday

    Time Temperature Precipitation Wind Pressure Humidity
    00:00 +25°C° 0 mm 2 mps 717 mmHg 59%
    01:00 +24°C° 0 mm 2 mps 717 mmHg 59%
    02:00 +24°C° 0 mm 2 mps 717 mmHg 60%
    03:00 +23°C° 0 mm 2 mps 717 mmHg 60%
    04:00 +23°C° 0 mm 2 mps 717 mmHg 61%
    05:00 +23°C° 0 mm 2 mps 717 mmHg 62%
    06:00 +24°C° 0 mm 2 mps 717 mmHg 54%
    07:00 +26°C° 0 mm 2 mps 718 mmHg 46%
    08:00 +28°C° 0 mm 2 mps 718 mmHg 38%
    09:00 +29°C° 0 mm 3 mps 718 mmHg 33%
    10:00 +31°C° 0 mm 3 mps 719 mmHg 28%
    11:00 +33°C° 0 mm 3 mps 719 mmHg 23%
    12:00 +34°C° 0 mm 4 mps 718 mmHg 23%
    13:00 +34°C° 0 mm 4 mps 718 mmHg 23%
    14:00 +35°C° 0 mm 5 mps 717 mmHg 23%
    15:00 +34°C° 0 mm 5 mps 717 mmHg 26%
    16:00 +33°C° 0 mm 4 mps 717 mmHg 29%
    17:00 +32°C° 0 mm 4 mps 717 mmHg 32%
    18:00 +29°C° 0 mm 4 mps 717 mmHg 37%
    19:00 +28°C° 0 mm 3 mps 718 mmHg 42%
    20:00 +27°C° 0 mm 2 mps 718 mmHg 47%
    21:00 +26°C° 0 mm 2 mps 718 mmHg 48%
    22:00 +26°C° 0 mm 2 mps 718 mmHg 48%
    23:00 +25°C° 0 mm 1 mps 718 mmHg 49%

    24 September, Monday

    Time Temperature Precipitation Wind Pressure Humidity
    00:00 +25°C° 0 mm 1 mps 717 mmHg 49%
    01:00 +24°C° 0 mm 1 mps 717 mmHg 49%
    02:00 +24°C° 0 mm 1 mps 717 mmHg 50%
    03:00 +23°C° 0 mm 1 mps 717 mmHg 50%
    04:00 +23°C° 0 mm 1 mps 717 mmHg 50%
    05:00 +22°C° 0 mm 1 mps 717 mmHg 50%
    06:00 +24°C° 0 mm 1 mps 717 mmHg 43%
    07:00 +26°C° 0 mm 1 mps 718 mmHg 37%
    08:00 +28°C° 0 mm 1 mps 718 mmHg 30%
    09:00 +30°C° 0 mm 1 mps 718 mmHg 27%
    10:00 +31°C° 0 mm 1 mps 718 mmHg 23%
    11:00 +33°C° 0 mm 1 mps 718 mmHg 19%
    12:00 +33°C° 0 mm 1 mps 717 mmHg 18%
    13:00 +35°C° 0 mm 2 mps 717 mmHg 18%
    14:00 +35°C° 0 mm 2 mps 717 mmHg 17%
    15:00 +35°C° 0 mm 2 mps 716 mmHg 19%
    16:00 +34°C° 0 mm 2 mps 716 mmHg 22%
    17:00 +34°C° 0 mm 2 mps 716 mmHg 24%
    18:00 +31°C° 0 mm 2 mps 716 mmHg 29%
    19:00 +30°C° 0 mm 2 mps 716 mmHg 34%
    20:00 +28°C° 0 mm 1 mps 717 mmHg 40%
    21:00 +28°C° 0 mm 1 mps 716 mmHg 41%
    22:00 +27°C° 0 mm 1 mps 716 mmHg 42%
    23:00 +26°C° 0 mm 1 mps 716 mmHg 43%

    25 September, Tuesday

    Time Temperature Precipitation Wind Pressure Humidity
    00:00 +26°C° 0 mm 1 mps 716 mmHg 44%
    01:00 +25°C° 0 mm 1 mps 716 mmHg 45%
    02:00 +23°C° 0 mm 0 mps 715 mmHg 45%
    03:00 +22°C° 0 mm 0 mps 716 mmHg 46%
    04:00 +22°C° 0 mm 0 mps 716 mmHg 46%
    05:00 +22°C° 0 mm 0 mps 716 mmHg 46%
    06:00 +24°C° 0 mm 0 mps 716 mmHg 40%
    07:00 +28°C° 0 mm 1 mps 716 mmHg 34%
    08:00 +30°C° 0 mm 1 mps 717 mmHg 28%
    09:00 +31°C° 0 mm 1 mps 717 mmHg 24%
    10:00 +33°C° 0 mm 1 mps 717 mmHg 21%
    11:00 +34°C° 0 mm 1 mps 717 mmHg 17%
    12:00 +36°C° 0 mm 2 mps 716 mmHg 16%
    13:00 +36°C° 0 mm 2 mps 716 mmHg 15%
    14:00 +37°C° 0 mm 2 mps 715 mmHg 14%
    15:00 +36°C° 0 mm 3 mps 715 mmHg 16%
    16:00 +35°C° 0 mm 3 mps 715 mmHg 17%
    17:00 +35°C° 0 mm 3 mps 715 mmHg 19%
    18:00 +33°C° 0 mm 3 mps 715 mmHg 22%
    19:00 +30°C° 0 mm 2 mps 715 mmHg 25%
    20:00 +29°C° 0 mm 1 mps 715 mmHg 28%
    21:00 +28°C° 0 mm 1 mps 715 mmHg 29%
    22:00 +27°C° 0 mm 1 mps 715 mmHg 30%
    23:00 +27°C° 0 mm 1 mps 715 mmHg 31%
    Show more